FW7086 Weather Reports


Display with metric or nautical units.
time (UTC)temp
F
wind
direction
speed
MPH
gust
MPH
rain 1hr
in
rain 24hr
in
rain mn
in
humidity
%
barometer
mb
20260504000300 68 169 4.0 6.0 0.00 0.00 0.00 44 1006.9
20260503235758 68 231 4.0 7.0 0.00 0.00 0.00 43 1007.0
20260503235255 68 178 6.0 7.0 0.00 0.00 0.00 43 1006.8
20260503234753 69 204 3.0 3.0 0.00 0.00 0.00 43 1007.1
20260503234250 69 160 2.0 3.0 0.00 0.00 0.00 43 1007.0
20260503233748 69 182 2.0 4.0 0.00 0.00 0.00 42 1007.1
20260503233243 69 130 6.0 8.0 0.00 0.00 0.00 42 1006.9
20260503232741 69 131 4.0 4.0 0.00 0.00 0.00 42 1006.9
20260503232238 69 220 5.0 7.0 0.00 0.00 0.00 41 1006.8
20260503231736 69 155 7.0 11.0 0.00 0.00 0.00 41 1007.1
20260503231232 69 185 2.0 4.0 0.00 0.00 0.00 41 1007.3
20260503230728 69 139 4.0 6.0 0.00 0.00 0.00 41 1007.0
20260503230226 68 186 6.0 7.0 0.00 0.00 0.00 41 1007.2
20260503225723 69 130 4.0 6.0 0.00 0.00 0.00 41 1007.5
20260503225223 69 145 7.0 10.0 0.00 0.00 0.00 41 1007.3
20260503224720 68 196 4.0 6.0 0.00 0.00 0.00 40 1007.3
20260503224218 68 273 5.0 9.0 0.00 0.00 0.00 41 1007.5
20260503223715 68 203 6.0 8.0 0.00 0.00 0.00 41 1007.5
20260503223213 68 211 3.0 3.0 0.00 0.00 0.00 41 1007.5
20260503222709 68 194 2.0 3.0 0.00 0.00 0.00 41 1007.7
20260503222207 67 175 3.0 4.0 0.00 0.00 0.00 42 1007.7
20260503221706 67 178 5.0 6.0 0.00 0.00 0.00 42 1007.7
20260503221203 67 171 6.0 11.0 0.00 0.00 0.00 41 1007.8
20260503220659 67 189 7.0 8.0 0.00 0.00 0.00 41 1007.8
20260503220155 66 158 7.0 8.0 0.00 0.00 0.00 42 1007.8
20260503215653 66 188 7.0 14.0 0.00 0.00 0.00 42 1007.8
20260503215149 67 151 10.0 13.0 0.00 0.00 0.00 41 1008.0
20260503214648 67 243 6.0 9.0 0.00 0.00 0.00 41 1008.2
20260503214144 67 144 2.0 3.0 0.00 0.00 0.00 41 1008.0
20260503213643 67 192 7.0 11.0 0.00 0.00 0.00 41 1008.0
20260503213140 67 147 8.0 9.0 0.00 0.00 0.00 40 1008.3
20260503212637 67 170 5.0 7.0 0.00 0.00 0.00 40 1008.4
20260503212134 67 192 8.0 13.0 0.00 0.00 0.00 39 1008.5
20260503211632 68 189 11.0 17.0 0.00 0.00 0.00 38 1008.4
20260503211127 68 222 2.0 4.0 0.00 0.00 0.00 39 1008.7
20260503210624 66 161 10.0 16.0 0.00 0.00 0.00 39 1008.5
20260503210120 65 227 9.0 14.0 0.00 0.00 0.00 39 1008.9
20260503205616 64 160 8.0 9.0 0.00 0.00 0.00 40 1008.8
20260503205112 64 253 6.0 9.0 0.00 0.00 0.00 41 1009.0
20260503204609 64 170 11.0 16.0 0.00 0.00 0.00 40 1009.1
20260503204107 64 174 8.0 11.0 0.00 0.00 0.00 40 1009.2
20260503203604 64 186 5.0 7.0 0.00 0.00 0.00 41 1009.1
20260503203101 64 240 5.0 9.0 0.00 0.00 0.00 41 1009.3
20260503202559 64 192 14.0 18.0 0.00 0.00 0.00 40 1009.5
20260503202056 64 179 5.0 8.0 0.00 0.00 0.00 41 1009.3
20260503201554 64 197 7.0 11.0 0.00 0.00 0.00 41 1009.5
20260503201051 64 182 12.0 17.0 0.00 0.00 0.00 41 1009.5
20260503200547 65 202 17.0 23.0 0.00 0.00 0.00 42 1009.9
20260503200044 65 186 10.0 14.0 0.00 0.00 0.00 42 1009.6
20260503195541 64 171 7.0 8.0 0.00 0.00 0.00 43 1010.0
20260503195038 65 205 11.0 17.0 0.00 0.00 0.00 43 1009.9
20260503194535 64 214 2.0 3.0 0.00 0.00 0.00 46 1010.0
20260503194035 63 228 9.0 17.0 0.00 0.00 0.00 47 1010.0
20260503193532 63 167 2.0 2.0 0.00 0.00 0.00 51 1010.0
20260503193027 62 172 8.0 15.0 0.00 0.00 0.00 49 1010.2
20260503192523 62 176 14.0 18.0 0.00 0.00 0.00 51 1010.2
20260503192020 61 163 7.0 8.0 0.00 0.00 0.00 52 1010.2
20260503191517 61 152 12.0 18.0 0.00 0.00 0.00 51 1010.5
20260503191013 61 198 4.0 9.0 0.00 0.00 0.00 53 1010.5
20260503190510 60 174 6.0 13.0 0.00 0.00 0.00 53 1010.7
20260503190008 60 150 11.0 14.0 0.00 0.00 0.00 52 1010.7
20260503185504 60 250 11.0 14.0 0.00 0.00 0.00 52 1010.7
20260503185003 59 170 7.0 11.0 0.00 0.00 0.00 54 1010.8
20260503184500 59 137 6.0 9.0 0.00 0.00 0.00 55 1010.9
20260503183956 57 155 10.0 13.0 0.00 0.00 0.00 55 1011.2
20260503183453 57 170 8.0 11.0 0.00 0.00 0.00 56 1011.4
20260503182950 56 181 9.0 14.0 0.00 0.00 0.00 58 1011.6
20260503182449 56 201 8.0 10.0 0.00 0.00 0.00 60 1011.6
20260503181946 55 180 4.0 4.0 0.00 0.00 0.00 61 1011.8
20260503181443 55 157 4.0 7.0 0.00 0.00 0.00 62 1011.9
20260503180939 55 81 4.0 7.0 0.00 0.00 0.00 63 1011.9
20260503180438 55 169 12.0 16.0 0.00 0.00 0.00 63 1012.0
20260503175934 55 127 2.0 4.0 0.00 0.00 0.00 63 1012.3
20260503175432 55 192 9.0 10.0 0.00 0.00 0.00 62 1012.7
20260503174927 55 153 6.0 8.0 0.00 0.00 0.00 64 1013.0
20260503174426 55 157 10.0 13.0 0.00 0.00 0.00 63 1013.0
20260503173926 55 204 10.0 15.0 0.00 0.00 0.00 64 1013.1
20260503173422 55 148 7.0 9.0 0.00 0.00 0.00 64 1013.5
20260503172919 54 185 5.0 7.0 0.00 0.00 0.00 67 1013.6
20260503172417 54 172 7.0 9.0 0.00 0.00 0.00 66 1013.6
20260503171913 54 181 7.0 10.0 0.00 0.00 0.00 66 1013.8
20260503171410 54 173 2.0 2.0 0.00 0.00 0.00 67 1013.9
20260503170907 53 221 13.0 18.0 0.00 0.00 0.00 67 1013.9
20260503170403 53 173 5.0 7.0 0.00 0.00 0.00 70 1014.2
20260503150755 54 136 4.0 4.0 0.00 0.00 0.00 56 1014.5
20260503150251 54 164 7.0 9.0 0.00 0.00 0.00 56 1014.4
20260503140216 52 166 3.0 3.0 0.00 0.00 0.00 57 1015.6
20260503131145 50 161 1.0 1.0 0.00 0.00 0.00 58 1015.5
20260503130643 50 165 4.0 4.0 0.00 0.00 0.00 57 1015.8
20260503130140 50 136 2.0 3.0 0.00 0.00 0.00 58 1015.6
20260503120106 50 241 8.0 9.0 0.00 0.00 0.00 55 1015.5
20260503110533 47 173 1.0 2.0 0.00 0.00 0.00 58 1015.4
20260503090420 47 211 5.0 6.0 0.00 0.00 0.00 54 1015.7
20260503081346 48 195 2.0 2.0 0.00 0.00 0.00 52 1015.8
20260503080843 48 178 3.0 4.0 0.00 0.00 0.00 52 1015.9
20260503080340 47 187 0.0 1.0 0.00 0.00 0.00 52 1015.9
20260503072817 48 155 2.0 3.0 0.00 0.00 0.00 52 1016.1
20260503072314 48 229 1.0 1.0 0.00 0.00 0.00 52 1016.2
20260503071809 48 226 5.0 7.0 0.00 0.00 0.00 51 1016.3
20260503071307 48 188 4.0 7.0 0.00 0.00 0.00 51 1016.1
20260503070803 48 237 3.0 4.0 0.00 0.00 0.00 51 1016.1
20260503070302 48 238 6.0 8.0 0.00 0.00 0.00 51 1016.2
20260503060232 48 157 2.0 2.0 0.00 0.00 0.00 48 1016.8
20260503054719 49 212 3.0 3.0 0.00 0.00 0.00 48 1016.9
20260503054216 49 155 4.0 6.0 0.00 0.00 0.00 48 1017.1
20260503053714 49 124 2.0 2.0 0.00 0.00 0.00 47 1017.2
20260503053213 49 294 4.0 4.0 0.00 0.00 0.00 47 1017.0
20260503052708 49 199 3.0 3.0 0.00 0.00 0.00 47 1017.0
20260503052205 49 200 5.0 6.0 0.00 0.00 0.00 47 1017.1
20260503051700 49 216 4.0 4.0 0.00 0.00 0.00 47 1017.0
20260503051159 49 167 2.0 2.0 0.00 0.00 0.00 48 1017.2
20260503050655 49 202 2.0 3.0 0.00 0.00 0.00 48 1017.3
20260503050151 49 229 1.0 1.0 0.00 0.00 0.00 48 1017.3
20260503045649 49 191 4.0 4.0 0.00 0.00 0.00 47 1017.3
20260503045146 49 163 2.0 2.0 0.00 0.00 0.00 47 1017.3
20260503044643 49 209 2.0 2.0 0.00 0.00 0.00 48 1017.2
20260503044140 49 172 3.0 4.0 0.00 0.00 0.00 47 1017.4
20260503043637 49 176 3.0 4.0 0.00 0.00 0.00 48 1017.2
20260503043134 49 205 3.0 3.0 0.00 0.00 0.00 48 1017.4
20260503042630 49 209 4.0 6.0 0.00 0.00 0.00 48 1017.3
20260503042126 49 155 3.0 3.0 0.00 0.00 0.00 48 1017.4
20260503041623 50 214 1.0 2.0 0.00 0.00 0.00 48 1017.4
20260503041121 49 198 2.0 3.0 0.00 0.00 0.00 48 1017.4
20260503040618 49 136 1.0 2.0 0.00 0.00 0.00 49 1017.4
20260503040115 49 83 1.0 3.0 0.00 0.00 0.00 48 1017.4
20260503035612 49 207 2.0 3.0 0.00 0.00 0.00 49 1017.4
20260503035109 49 208 2.0 2.0 0.00 0.00 0.00 49 1017.7
20260503034607 49 192 1.0 1.0 0.00 0.00 0.00 49 1017.4
20260503034104 49 136 1.0 2.0 0.00 0.00 0.00 50 1017.6
20260503033600 49 168 2.0 3.0 0.00 0.00 0.00 49 1017.6
20260503033059 49 155 1.0 1.0 0.00 0.00 0.00 49 1017.6
20260503032557 49 147 0.0 1.0 0.00 0.00 0.00 49 1017.5
20260503032054 49 150 1.0 1.0 0.00 0.00 0.00 49 1017.7
20260503031552 49 157 0.0 0.0 0.00 0.00 0.00 49 1017.6
20260503031049 49 158 1.0 1.0 0.00 0.00 0.00 49 1017.7
20260503030545 49 155 0.0 0.0 0.00 0.00 0.00 50 1017.7
20260503030042 49 162 0.0 0.0 0.00 0.00 0.00 50 1017.6
20260503025539 50 181 0.0 0.0 0.00 0.00 0.00 49 1017.7
20260503025037 49 153 0.0 0.0 0.00 0.00 0.00 49 1017.8
20260503024532 50 162 0.0 1.0 0.00 0.00 0.00 48 1017.7
20260503024030 50 167 0.0 1.0 0.00 0.00 0.00 48 1017.8
20260503023526 50 182 2.0 2.0 0.00 0.00 0.00 47 1017.7
20260503023024 50 171 0.0 0.0 0.00 0.00 0.00 48 1017.8
20260503022520 50 163 0.0 0.0 0.00 0.00 0.00 49 1017.8
20260503022015 50 166 0.0 0.0 0.00 0.00 0.00 48 1017.9
20260503021512 50 163 0.0 0.0 0.00 0.00 0.00 47 1017.7
20260503021009 51 163 0.0 0.0 0.00 0.00 0.00 46 1017.9
20260503020506 51 197 0.0 0.0 0.00 0.00 0.00 45 1017.7
20260503020003 51 224 1.0 1.0 0.00 0.00 0.00 45 1017.6
20260503015459 51 161 0.0 0.0 0.00 0.00 0.00 45 1017.5
20260503014956 51 159 0.0 0.0 0.00 0.00 0.00 45 1017.6
20260503014453 51 209 1.0 1.0 0.00 0.00 0.00 46 1017.5
20260503013951 51 163 0.0 0.0 0.00 0.00 0.00 47 1017.7
20260503013448 51 191 0.0 0.0 0.00 0.00 0.00 45 1017.5
20260503012945 51 193 0.0 0.0 0.00 0.00 0.00 46 1017.3
20260503012443 51 166 0.0 1.0 0.00 0.00 0.00 44 1017.6
20260503011938 51 155 2.0 2.0 0.00 0.00 0.00 43 1017.5
20260503011436 51 328 0.0 0.0 0.00 0.00 0.00 45 1017.6
20260503010933 51 8 0.0 0.0 0.00 0.00 0.00 44 1017.6
20260503010429 52 4 0.0 0.0 0.00 0.00 0.00 44 1017.7
20260503005926 53 298 0.0 0.0 0.00 0.00 0.00 42 1017.6
20260503005424 53 28 0.0 0.0 0.00 0.00 0.00 41 1017.6
20260503004920 53 290 0.0 1.0 0.00 0.00 0.00 40 1017.6
20260503004417 53 323 0.0 0.0 0.00 0.00 0.00 40 1017.5
20260503003915 54 201 0.0 0.0 0.00 0.00 0.00 39 1017.8
20260503003411 54 277 3.0 3.0 0.00 0.00 0.00 39 1017.6
20260503002909 54 308 1.0 2.0 0.00 0.00 0.00 39 1017.6
20260503002406 55 288 1.0 1.0 0.00 0.00 0.00 38 1017.6
20260503001902 55 269 2.0 3.0 0.00 0.00 0.00 38 1017.5
20260503001358 55 345 1.0 1.0 0.00 0.00 0.00 38 1017.6
20260503000856 55 333 0.0 1.0 0.00 0.00 0.00 38 1017.6